Weather History for Window Rock, AZ

Change the Weather History Date:

Tuesday, July 30, 2013

  Actual Average Record
Temperature  
Mean Temperature 68 °F -  
Max Temperature 84 °F 81 °F 95 °F (1947)
Min Temperature 51 °F 55 °F 46 °F (2004)
Cooling Degree Days 2    
Growing Degree Days 18 (Base 50)    
Moisture  
Dew Point 44 °F    
Average Humidity 47    
Maximum Humidity 89    
Minimum Humidity 17    
Precipitation  
Precipitation 0.00 in - - ()
Sea Level Pressure  
Sea Level Pressure 30.06 in    
Wind  
Wind Speed 1 mph (West)    
Max Wind Speed 9 mph    
Max Gust Speed 17 mph    
Visibility 10 miles    
Events      
Averages and records for this station are not official NWS values.
T = Trace of Precipitation, MM = Missing Value Source: NWS Daily Summary

Daily Weather History Graph

Daily Weather History Graph

Search for Another Location

Airport:

Trip Planner

Search our weather history database for the weather conditions in past years. The results will help you decide how hot, cold, wet, or windy it might be!

Date:

Astronomy

Jul. 30, 2013 Rise Set
Actual Time 6:23 AM MDT 8:21 PM MDT
Civil Twilight 5:54 AM MDT 8:49 PM MDT
Nautical Twilight 5:20 AM MDT 9:24 PM MDT
Astronomical Twilight 4:43 AM MDT 10:00 PM MDT
Moon 12:41 AM MDT (7/30) 2:45 PM MDT (7/30)
Length of Visible Light 14h 55m
Length of Day
13h 58m
Last Quarter, 40% of the Moon is Illuminated
Jul 30
Last Quarter
Aug 6
New
Aug 14
First Quarter
Aug 20
Full
Aug 28
Last Quarter

Hourly Weather History & Observations

Time (MDT) Temp. Dew Point Humidity Pressure Visibility Wind Dir Wind Speed Gust Speed Precip Events Conditions
12:53 AM 55.9 °F 51.1 °F 84% 30.04 in 10.0 mi Calm Calm - N/A   Clear
1:53 AM 54.0 °F 50.0 °F 86% 30.03 in 10.0 mi Calm Calm - N/A   Clear
2:53 AM 54.0 °F 50.0 °F 86% 30.04 in 10.0 mi Calm Calm - N/A   Clear
3:53 AM 53.1 °F 48.9 °F 86% 30.06 in 10.0 mi Calm Calm - N/A   Clear
4:53 AM 55.0 °F 48.0 °F 77% 30.04 in 10.0 mi Calm Calm - N/A   Clear
5:53 AM 51.1 °F 48.0 °F 89% 30.07 in 10.0 mi Calm Calm - N/A   Clear
7:53 AM 57.9 °F 51.1 °F 78% 30.11 in 10.0 mi Calm Calm - N/A   Clear
8:53 AM 66.9 °F 51.1 °F 57% 30.12 in 10.0 mi Calm Calm - N/A   Clear
9:53 AM 72.0 °F 48.0 °F 43% 30.11 in 10.0 mi Calm Calm - N/A   Clear
10:53 AM 78.1 °F 44.1 °F 30% 30.10 in 10.0 mi Calm Calm - N/A   Clear
11:53 AM 79.0 °F 44.1 °F 29% 30.09 in 10.0 mi Variable 3.5 mph - N/A   Clear
12:53 PM 81.0 °F 39.9 °F 23% 30.08 in 10.0 mi Variable 6.9 mph - N/A   Partly Cloudy
1:53 PM 81.0 °F 39.9 °F 23% 30.08 in 10.0 mi Variable 3.5 mph - N/A   Scattered Clouds
2:53 PM 82.9 °F 39.0 °F 21% 30.06 in 10.0 mi NW 5.8 mph - N/A   Scattered Clouds
3:53 PM 84.0 °F 35.1 °F 17% 30.05 in 10.0 mi Variable 5.8 mph 17.3 mph N/A   Clear
4:53 PM 84.9 °F 36.0 °F 17% 30.02 in 10.0 mi WSW 9.2 mph - N/A   Partly Cloudy
5:53 PM 82.0 °F 35.1 °F 18% 30.03 in 10.0 mi West 3.5 mph - N/A   Clear
6:53 PM 82.9 °F 35.1 °F 18% 30.02 in 10.0 mi West 6.9 mph - N/A   Clear
7:53 PM 79.0 °F 35.1 °F 20% 30.01 in 10.0 mi West 8.1 mph - N/A   Clear
8:53 PM 70.0 °F 42.1 °F 36% 30.02 in 10.0 mi Calm Calm - N/A   Clear
9:53 PM 66.9 °F 43.0 °F 42% 30.04 in 10.0 mi Calm Calm - N/A   Clear
10:53 PM 64.9 °F 43.0 °F 45% 30.03 in 10.0 mi Calm Calm - N/A   Clear
11:53 PM 60.1 °F 46.0 °F 60% 30.05 in 10.0 mi Calm Calm - N/A   Clear